GW5652 Weather Reports


time (UTC)temp
C
wind
direction
speed
KPH
gust
KPH
rain 1hr
cm
rain 24hr
cm
rain mn
cm
humidity
%
barometer
mb
20260507051914 11 306 20.9 32.2 0.00 0.00 0.00 82 1021.7
20260507051412 11 283 11.3 37.0 0.00 0.00 0.00 82 1021.6
20260507050909 11 343 12.9 38.6 0.00 0.00 0.00 81 1021.5
20260507050405 11 296 12.9 22.5 0.00 0.00 0.00 82 1021.4
20260507045902 11 302 9.7 33.8 0.00 0.00 0.00 82 1021.5
20260507045359 11 309 16.1 37.0 0.00 0.00 0.00 82 1021.4
20260507044856 11 287 11.3 33.8 0.00 0.00 0.00 82 1021.7
20260507044352 11 281 12.9 20.9 0.00 0.00 0.00 82 1021.5
20260507043848 11 299 14.5 22.5 0.00 0.00 0.00 82 1021.6
20260507043345 11 277 17.7 25.7 0.00 0.00 0.00 82 1021.4
20260507042841 11 293 6.4 27.4 0.00 0.00 0.00 82 1021.4
20260507042337 11 272 16.1 29.0 0.00 0.00 0.00 82 1021.4
20260507041834 11 286 17.7 33.8 0.00 0.00 0.00 82 1021.4
20260507041331 11 303 17.7 30.6 0.00 0.00 0.00 82 1021.5
20260507040828 11 274 20.9 33.8 0.00 0.00 0.00 81 1021.3
20260507040324 11 251 19.3 38.6 0.00 0.00 0.00 81 1021.4
20260507035820 11 308 24.1 37.0 0.00 0.00 0.00 81 1021.0
20260507035316 11 294 27.4 32.2 0.00 0.00 0.00 81 1021.1
20260507034814 11 269 11.3 38.6 0.00 0.00 0.00 82 1021.1
20260507034310 11 300 16.1 29.0 0.00 0.00 0.00 82 1020.8
20260507033809 11 314 19.3 38.6 0.00 0.00 0.00 81 1020.8
20260507033306 11 280 22.5 45.1 0.00 0.00 0.00 81 1021.2
20260507032803 11 310 19.3 32.2 0.00 0.00 0.00 81 1021.1
20260507032259 11 286 16.1 30.6 0.00 0.00 0.00 81 1020.9
20260507031755 11 269 16.1 35.4 0.00 0.00 0.00 81 1021.0
20260507031252 12 292 19.3 20.9 0.00 0.00 0.00 80 1021.1
20260507030749 12 293 6.4 27.4 0.00 0.00 0.00 80 1020.8
20260507030246 12 263 24.1 30.6 0.00 0.00 0.00 80 1021.1
20260507025743 12 324 24.1 51.5 0.00 0.00 0.00 79 1021.1
20260507025240 12 286 11.3 24.1 0.00 0.00 0.00 80 1021.2
20260507024739 12 312 19.3 30.6 0.00 0.00 0.00 80 1021.4
20260507024236 12 276 16.1 37.0 0.00 0.00 0.00 80 1021.2
20260507023731 12 276 11.3 22.5 0.00 0.00 0.00 80 1020.9
20260507023229 12 287 14.5 48.3 0.00 0.00 0.00 79 1021.0
20260507022726 12 281 14.5 30.6 0.00 0.00 0.00 79 1021.0
20260507022221 12 291 8.0 41.8 0.00 0.00 0.00 78 1020.9
20260507021718 13 313 32.2 35.4 0.00 0.00 0.00 77 1020.9
20260507021213 13 304 27.4 45.1 0.00 0.00 0.00 76 1021.0
20260507020712 13 303 12.9 33.8 0.00 0.00 0.00 76 1021.0
20260507020208 13 296 22.5 35.4 0.00 0.00 0.00 76 1020.9
20260507015706 13 300 16.1 29.0 0.00 0.00 0.00 76 1021.0
20260507015203 13 293 17.7 38.6 0.00 0.00 0.00 75 1021.0
20260507014659 13 308 30.6 33.8 0.00 0.00 0.00 75 1021.0
20260507014155 13 289 12.9 32.2 0.00 0.00 0.00 75 1021.0
20260507013653 13 279 14.5 40.2 0.00 0.00 0.00 75 1020.9
20260507013149 13 302 27.4 40.2 0.00 0.00 0.00 75 1021.2
20260507012647 14 296 11.3 40.2 0.00 0.00 0.00 75 1021.1
20260507012142 14 308 27.4 33.8 0.00 0.00 0.00 74 1021.2
20260507011641 14 291 32.2 37.0 0.00 0.00 0.00 74 1021.0
20260507011137 14 299 20.9 45.1 0.00 0.00 0.00 74 1020.9
20260507010631 14 268 29.0 32.2 0.00 0.00 0.00 74 1021.2
20260507010128 15 285 17.7 38.6 0.00 0.00 0.00 72 1020.8
20260507005625 15 250 14.5 25.7 0.00 0.00 0.00 72 1020.9
20260507005121 15 301 20.9 40.2 0.00 0.00 0.00 73 1021.1
20260507004618 15 299 20.9 43.5 0.00 0.00 0.00 72 1021.2
20260507004116 15 279 16.1 35.4 0.00 0.00 0.00 72 1021.1
20260507003612 15 276 20.9 46.7 0.00 0.00 0.00 72 1021.0
20260507003107 15 287 14.5 29.0 0.00 0.00 0.00 71 1021.1
20260507002604 15 281 19.3 35.4 0.00 0.00 0.00 71 1021.2
20260507002059 15 321 24.1 37.0 0.00 0.00 0.00 70 1021.0
20260507001556 15 291 19.3 35.4 0.00 0.00 0.00 71 1020.9
20260507001054 15 305 29.0 48.3 0.00 0.00 0.00 70 1021.0
20260507000550 15 294 19.3 32.2 0.00 0.00 0.00 70 1021.0
20260507000045 16 296 20.9 35.4 0.00 0.00 0.00 70 1020.8
20260506235543 15 264 22.5 35.4 0.00 0.00 0.00 70 1020.9
20260506235038 15 301 27.4 53.1 0.00 0.00 0.00 70 1020.9
20260506234536 16 290 29.0 41.8 0.00 0.00 0.00 69 1021.0
20260506234033 16 308 19.3 40.2 0.00 0.00 0.00 69 1021.0
20260506233530 16 305 30.6 40.2 0.00 0.00 0.00 69 1020.8
20260506233027 15 305 24.1 38.6 0.00 0.00 0.00 70 1021.1
20260506232523 16 317 20.9 33.8 0.00 0.00 0.00 69 1021.0
20260506232018 16 305 20.9 38.6 0.00 0.00 0.00 68 1021.0
20260506231516 16 290 17.7 43.5 0.00 0.00 0.00 69 1021.1
20260506231014 16 302 19.3 45.1 0.00 0.00 0.00 69 1021.0
20260506230510 16 310 22.5 48.3 0.00 0.00 0.00 69 1021.0
20260506230008 16 308 38.6 43.5 0.00 0.00 0.00 68 1021.2
20260506225504 17 303 11.3 29.0 0.00 0.00 0.00 67 1020.9
20260506225000 17 308 14.5 29.0 0.00 0.00 0.00 68 1021.1
20260506224457 16 310 14.5 35.4 0.00 0.00 0.00 68 1020.8
20260506223954 17 317 30.6 30.6 0.00 0.00 0.00 67 1021.2
20260506223450 17 312 25.7 35.4 0.00 0.00 0.00 66 1021.2
20260506222947 17 305 22.5 25.7 0.00 0.00 0.00 66 1021.1
20260506222444 17 308 17.7 25.7 0.00 0.00 0.00 67 1021.2
20260506221940 18 306 14.5 19.3 0.00 0.00 0.00 66 1021.2
20260506221437 17 271 25.7 27.4 0.00 0.00 0.00 67 1021.2
20260506220936 17 299 16.1 24.1 0.00 0.00 0.00 66 1021.2
20260506220431 17 302 17.7 33.8 0.00 0.00 0.00 65 1021.1
20260506215927 17 295 6.4 24.1 0.00 0.00 0.00 67 1020.9
20260506215424 17 318 12.9 20.9 0.00 0.00 0.00 67 1021.0
20260506214920 17 266 6.4 30.6 0.00 0.00 0.00 65 1021.3
20260506214417 18 309 14.5 22.5 0.00 0.00 0.00 66 1021.0
20260506213914 18 247 9.7 16.1 0.00 0.00 0.00 65 1021.1
20260506213412 18 316 8.0 17.7 0.00 0.00 0.00 68 1021.1
20260506212909 17 294 17.7 19.3 0.00 0.00 0.00 67 1021.1
20260506212405 17 311 11.3 25.7 0.00 0.00 0.00 68 1021.3
20260506211859 17 288 11.3 20.9 0.00 0.00 0.00 70 1021.1
20260506211356 18 320 6.4 20.9 0.00 0.00 0.00 68 1021.1
20260506210853 17 287 9.7 14.5 0.00 0.00 0.00 70 1021.3
20260506210350 17 257 8.0 22.5 0.00 0.00 0.00 67 1021.2
20260506205847 17 232 8.0 17.7 0.00 0.00 0.00 68 1021.1
20260506205343 17 284 6.4 14.5 0.00 0.00 0.00 67 1021.2
20260506204840 17 241 14.5 19.3 0.00 0.00 0.00 68 1021.3
20260506204337 17 263 4.8 14.5 0.00 0.00 0.00 68 1021.4
20260506203835 17 250 9.7 12.9 0.00 0.00 0.00 67 1021.3
20260506203332 17 307 8.0 17.7 0.00 0.00 0.00 68 1021.3
20260506202829 17 290 8.0 16.1 0.00 0.00 0.00 69 1021.2
20260506202326 17 280 9.7 16.1 0.00 0.00 0.00 69 1021.1
20260506201822 17 308 9.7 16.1 0.00 0.00 0.00 69 1021.3
20260506201320 17 287 14.5 25.7 0.00 0.00 0.00 72 1021.3
20260506200816 17 321 6.4 17.7 0.00 0.00 0.00 70 1021.4
20260506200312 17 279 14.5 20.9 0.00 0.00 0.00 70 1021.6
20260506195809 17 303 3.2 20.9 0.00 0.00 0.00 68 1021.6
20260506195306 17 295 11.3 19.3 0.00 0.00 0.00 70 1021.5
20260506194803 16 303 4.8 14.5 0.00 0.00 0.00 70 1021.6
20260506194259 16 284 12.9 24.1 0.00 0.00 0.00 70 1021.5
20260506193757 17 292 9.7 16.1 0.00 0.00 0.00 71 1021.5
20260506193254 17 316 4.8 8.0 0.00 0.00 0.00 72 1021.4
20260506192750 16 320 4.8 9.7 0.00 0.00 0.00 74 1021.6
20260506192247 17 218 0.0 8.0 0.00 0.00 0.00 72 1021.4
20260506191743 17 326 1.6 6.4 0.00 0.00 0.00 72 1021.4
20260506191240 16 272 4.8 11.3 0.00 0.00 0.00 73 1021.5
20260506190737 18 86 1.6 6.4 0.00 0.00 0.00 68 1021.4
20260506190233 16 190 3.2 9.7 0.00 0.00 0.00 73 1021.5
20260506185731 16 43 0.0 6.4 0.00 0.00 0.00 75 1021.5
20260506185227 16 323 8.0 12.9 0.00 0.00 0.00 76 1021.2
20260506184725 15 311 1.6 8.0 0.00 0.00 0.00 77 1021.4
20260506184222 15 97 0.0 4.8 0.00 0.00 0.00 76 1021.4
20260506183719 15 350 3.2 9.7 0.00 0.00 0.00 76 1021.5
20260506183214 16 307 9.7 9.7 0.00 0.00 0.00 77 1021.5
20260506182712 15 311 1.6 8.0 0.00 0.00 0.00 79 1021.4
20260506182209 15 271 6.4 11.3 0.00 0.00 0.00 80 1021.6
20260506181707 14 297 8.0 14.5 0.00 0.00 0.00 80 1021.5
20260506181204 14 295 12.9 14.5 0.00 0.00 0.00 81 1021.5
20260506180701 15 311 6.4 8.0 0.00 0.00 0.00 82 1021.6
20260506180157 15 320 6.4 11.3 0.00 0.00 0.00 81 1021.4
20260506175653 15 322 0.0 4.8 0.00 0.00 0.00 76 1021.8
20260506175150 16 163 6.4 8.0 0.00 0.00 0.00 76 1021.4
20260506174643 16 136 0.0 9.7 0.00 0.00 0.00 76 1021.4
20260506174139 16 173 0.0 4.8 0.00 0.00 0.00 76 1021.5
20260506173637 15 83 4.8 14.5 0.00 0.00 0.00 79 1021.4
20260506173133 15 131 4.8 12.9 0.00 0.00 0.00 78 1021.2
20260506172630 15 288 4.8 11.3 0.00 0.00 0.00 78 1021.2
20260506172126 14 85 3.2 8.0 0.00 0.00 0.00 79 1021.3
20260506171624 13 145 6.4 8.0 0.00 0.00 0.00 81 1021.4
20260506171122 13 195 4.8 11.3 0.00 0.00 0.00 83 1021.6
20260506170619 13 204 3.2 8.0 0.00 0.00 0.00 84 1021.6
20260506170116 12 268 6.4 9.7 0.00 0.00 0.00 85 1021.7
20260506165615 13 161 9.7 12.9 0.00 0.00 0.00 84 1021.6
20260506165110 13 166 3.2 4.8 0.00 0.00 0.00 85 1021.6
20260506164608 12 136 8.0 16.1 0.00 0.00 0.00 87 1021.4
20260506164105 12 156 6.4 12.9 0.00 0.00 0.00 87 1021.3
20260506163601 12 151 8.0 12.9 0.00 0.00 0.00 87 1021.5
20260506163057 12 200 4.8 6.4 0.00 0.00 0.00 88 1021.7
20260506162553 12 184 1.6 6.4 0.00 0.00 0.00 87 1021.7
20260506162051 12 176 0.0 6.4 0.00 0.00 0.00 87 1021.6
20260506161548 12 143 8.0 8.0 0.00 0.00 0.00 85 1021.4
20260506161045 12 168 4.8 8.0 0.00 0.00 0.00 86 1021.4
20260506160543 12 170 3.2 6.4 0.00 0.00 0.00 86 1021.4
20260506160039 12 321 0.0 4.8 0.00 0.00 0.00 83 1021.4
20260506155538 12 120 1.6 6.4 0.00 0.00 0.00 83 1021.2
20260506153714 12 147 6.4 11.3 0.00 0.00 0.00 82 1020.9
20260506153212 12 166 0.0 3.2 0.00 0.00 0.00 83 1020.9
20260506152709 12 243 0.0 6.4 0.00 0.00 0.00 84 1021.1
20260506152206 11 262 4.8 8.0 0.00 0.00 0.00 83 1021.1
20260506151706 11 315 3.2 12.9 0.00 0.00 0.00 84 1021.3
20260506151201 11 276 3.2 8.0 0.00 0.00 0.00 84 1021.2
20260506150658 11 254 4.8 11.3 0.00 0.00 0.00 85 1021.5
20260506150155 11 279 11.3 11.3 0.00 0.00 0.00 85 1021.5
20260506145652 11 338 3.2 14.5 0.00 0.00 0.00 86 1021.4
20260506145148 11 284 4.8 11.3 0.00 0.00 0.00 86 1021.4
20260506144646 11 268 9.7 14.5 0.00 0.00 0.00 86 1021.5
20260506144143 11 298 9.7 16.1 0.00 0.00 0.00 86 1021.4
20260506143641 11 321 4.8 11.3 0.00 0.00 0.00 87 1021.5
20260506143138 11 302 16.1 16.1 0.00 0.00 0.00 86 1021.3
20260506142637 11 303 11.3 17.7 0.00 0.00 0.00 86 1021.1
20260506142134 11 288 4.8 12.9 0.00 0.00 0.00 87 1020.9
20260506141631 11 338 1.6 4.8 0.00 0.00 0.00 89 1021.0
20260506141130 11 311 0.0 3.2 0.00 0.00 0.00 91 1020.9
20260506140627 11 327 4.8 6.4 0.00 0.00 0.00 92 1020.6
20260506140124 11 142 4.8 8.0 0.00 0.00 0.00 91 1020.4
20260506135621 11 128 1.6 3.2 0.00 0.00 0.00 92 1020.6
20260506135117 11 127 3.2 4.8 0.00 0.00 0.00 92 1020.3
20260506134614 11 147 3.2 4.8 0.00 0.00 0.00 92 1020.4
20260506134110 11 129 0.0 4.8 0.00 0.00 0.00 91 1020.4
20260506133608 11 137 3.2 8.0 0.00 0.00 0.00 91 1020.3
20260506133104 11 197 1.6 3.2 0.00 0.00 0.00 91 1020.4
20260506132601 11 181 1.6 3.2 0.00 0.00 0.00 91 1020.2
20260506132058 10 169 0.0 4.8 0.00 0.00 0.00 91 1020.2
20260506131555 10 190 1.6 4.8 0.00 0.00 0.00 90 1020.2
20260506131052 10 157 1.6 3.2 0.00 0.00 0.00 90 1020.3
20260506130549 10 152 0.0 3.2 0.00 0.00 0.00 90 1020.2
20260506130046 10 247 3.2 4.8 0.00 0.00 0.00 90 1020.1
20260506125544 10 230 4.8 8.0 0.00 0.00 0.00 90 1020.1
20260506125042 10 192 3.2 6.4 0.00 0.00 0.00 89 1020.0
20260506124539 10 239 3.2 6.4 0.00 0.00 0.00 89 1020.0
20260506124037 10 221 3.2 9.7 0.00 0.00 0.00 89 1019.8
20260506123535 10 213 0.0 6.4 0.00 0.00 0.00 89 1019.9
20260506123033 10 257 8.0 9.7 0.00 0.00 0.00 89 1019.9
20260506122529 10 234 4.8 9.7 0.00 0.00 0.00 88 1020.0
20260506122028 10 269 6.4 14.5 0.00 0.00 0.00 88 1019.9
20260506121525 10 338 9.7 14.5 0.00 0.00 0.00 88 1020.0
20260506121020 11 248 11.3 12.9 0.00 0.00 0.00 88 1020.0
20260506120519 11 274 9.7 17.7 0.00 0.00 0.00 88 1020.0
20260506120016 11 229 6.4 17.7 0.00 0.00 0.00 88 1020.2
20260506115514 11 263 12.9 16.1 0.00 0.00 0.00 88 1020.1
20260506115012 11 255 6.4 16.1 0.00 0.00 0.00 88 1019.8
20260506114509 11 308 6.4 19.3 0.00 0.00 0.00 87 1019.8
20260506114008 11 268 9.7 20.9 0.00 0.00 0.00 87 1019.7
20260506113505 11 309 11.3 20.9 0.00 0.00 0.00 87 1019.6
20260506113001 11 279 9.7 35.4 0.00 0.00 0.00 87 1019.6
20260506112459 11 308 8.0 20.9 0.00 0.00 0.00 87 1019.5
20260506111956 11 316 11.3 20.9 0.00 0.00 0.00 87 1019.6
20260506111454 11 294 11.3 17.7 0.00 0.00 0.00 87 1019.4
20260506110950 11 298 8.0 24.1 0.00 0.00 0.00 88 1019.2
20260506110449 11 355 1.6 17.7 0.00 0.00 0.00 88 1019.5
20260506105945 11 283 14.5 22.5 0.00 0.00 0.00 88 1019.3
20260506105441 11 343 8.0 22.5 0.00 0.00 0.00 88 1019.2
20260506104938 11 267 9.7 22.5 0.00 0.00 0.00 88 1019.4
20260506104437 11 301 6.4 24.1 0.00 0.00 0.00 88 1018.8
20260506103935 11 296 9.7 30.6 0.00 0.00 0.00 88 1019.1
20260506103432 11 300 8.0 25.7 0.00 0.00 0.00 89 1018.9
20260506102929 11 303 20.9 25.7 0.00 0.00 0.00 89 1018.7
20260506102427 11 301 17.7 20.9 0.00 0.00 0.00 90 1018.8
20260506101924 11 286 9.7 29.0 0.00 0.00 0.00 90 1018.7
20260506101420 11 307 9.7 24.1 0.00 0.00 0.00 90 1018.9
20260506100917 11 301 9.7 20.9 0.00 0.00 0.00 90 1018.7
20260506100415 11 300 11.3 17.7 0.00 0.00 0.00 91 1018.7
20260506095913 10 305 11.3 16.1 0.00 0.00 0.00 91 1018.8
20260506095412 10 289 16.1 19.3 0.00 0.00 0.00 91 1018.7
20260506094907 10 311 14.5 20.9 0.00 0.00 0.00 91 1018.6
20260506094406 10 284 8.0 16.1 0.00 0.00 0.00 91 1018.6
20260506093903 10 306 4.8 16.1 0.00 0.00 0.00 92 1018.5
20260506093401 10 274 8.0 14.5 0.00 0.00 0.00 92 1018.4
20260506092859 10 313 8.0 11.3 0.00 0.00 0.00 92 1018.6
20260506092356 10 306 9.7 17.7 0.00 0.00 0.00 92 1018.5
20260506091852 10 290 4.8 12.9 0.00 0.00 0.00 92 1018.4
20260506091351 10 286 6.4 12.9 0.00 0.00 0.00 92 1018.6
20260506090848 10 309 4.8 11.3 0.00 0.00 0.00 91 1018.6
20260506090345 10 276 4.8 12.9 0.00 0.00 0.00 91 1018.5
20260506085842 10 309 16.1 16.1 0.00 0.00 0.00 91 1018.4
20260506085338 10 310 9.7 17.7 0.00 0.00 0.00 91 1018.6
20260506084835 10 303 11.3 14.5 0.00 0.00 0.00 91 1018.4
20260506084332 10 309 4.8 14.5 0.00 0.00 0.00 91 1018.4
20260506083828 10 307 8.0 14.5 0.00 0.00 0.00 91 1018.3
20260506083326 10 272 4.8 8.0 0.00 0.00 0.00 91 1018.5
20260506082823 10 305 4.8 8.0 0.00 0.00 0.00 91 1018.4
20260506082319 10 318 3.2 4.8 0.00 0.00 0.00 91 1018.3
20260506081816 10 313 0.0 3.2 0.00 0.00 0.00 91 1018.5
20260506081314 10 202 0.0 4.8 0.00 0.00 0.00 90 1018.1
20260506080811 10 335 0.0 4.8 0.00 0.00 0.00 90 1018.2
20260506080307 11 249 3.2 6.4 0.00 0.00 0.00 90 1018.2
20260506073252 11 295 6.4 14.5 0.00 0.00 0.00 89 1018.2
20260506072749 11 278 4.8 8.0 0.00 0.00 0.00 89 1018.1
20260506072246 11 293 4.8 8.0 0.00 0.00 0.00 88 1018.0
20260506071744 11 268 4.8 16.1 0.00 0.00 0.00 89 1017.9
20260506071241 11 263 4.8 11.3 0.00 0.00 0.00 88 1017.9
20260506070738 11 266 4.8 11.3 0.00 0.00 0.00 88 1017.9
20260506070235 11 298 6.4 12.9 0.00 0.00 0.00 88 1017.9
20260506062212 11 303 14.5 20.9 0.00 0.00 0.00 87 1017.8
20260506061708 11 306 17.7 19.3 0.00 0.00 0.00 87 1017.8
20260506061206 11 308 9.7 16.1 0.00 0.00 0.00 87 1017.8
20260506060704 11 318 14.5 16.1 0.00 0.00 0.00 87 1017.7
20260506060200 11 310 8.0 16.1 0.00 0.00 0.00 86 1017.6